Temp
18 18 18 17 17 17 17 16 16 15 16 16 16 16 16 15 15 15 16 16 16 16 15 15 16 16 16 16 16 16 16 15 16 15 15 15 14 15 14 14 13 14 14
18 18 18 17 17 17 17 16 16 16 15 16 16 16 16 15 16 16 16 16 16 16 14 15 16 16 16 16 16 16 15 15 15 15 14 14 14 15 14 14 14 14 14
18 17 18 17 17 17 16 16 16 16 16 16 16 16 15 16 16 16 16 16 16 15 14 15 16 16 16 16 16 16 15 15 14 14 14 14 14 15 14 14 14 14 14
18 16 16 17 17 17 16 16 16 16 16 17 17 16 15 16 16 16 16 16 16 16 15 16 16 16 16 16 16 16 15 15 14 14 15 14 13 14 14 14 14 14 14
18 17 16 17 17 17 16 16 16 16 17 17 17 16 15 15 15 16 16 16 16 16 16 16 16 16 16 16 16 16 16 15 14 14 13 13 13 15 14 15 14 14 14
18 18 16 16 16 17 17 16 16 17 17 17 16 16 16 15 15 16 16 17 17 17 16 16 16 16 16 16 16 16 16 15 13 14 13 13 15 15 15 15 15 15 15
19 17 16 16 16 16 16 16 17 17 17 17 16 16 15 15 14 16 16 17 17 17 17 17 17 16 16 16 16 16 16 15 13 13 13 13 15 15 15 15 16 15 15
18 16 16 16 15 16 16 16 16 17 17 16 15 15 15 14 14 17 16 17 17 17 17 17 16 16 16 16 16 16 16 15 14 13 13 15 15 15 15 15 15 16 16
18 16 15 16 16 16 15 16 16 17 17 16 14 14 14 14 14 15 16 16 17 17 17 17 17 17 17 17 16 16 16 15 14 13 13 13 15 15 15 15 15 15 16
17 16 16 16 15 16 15 15 15 16 17 17 17 16 16 16 17 17 16 17 17 17 17 17 17 17 16 16 16 16 16 15 13 13 13 15 15 15 15 15 15 15 15
16 16 16 15 15 15 14 15 15 16 17 17 16 16 16 14 17 16 17 17 17 17 17 17 17 16 16 16 16 16 16 14 13 13 13 15 15 15 15 15 15 14 15
16 16 15 15 15 15 14 15 14 16 16 17 17 17 14 14 14 14 17 17 17 17 17 17 16 16 16 14 15 16 15 13 13 13 13 15 15 15 15 15 14 14 14
16 15 16 16 15 15 15 14 15 14 15 15 15 14 15 14 16 17 17 17 17 17 17 17 16 16 13 14 14 14 14 15 14 13 13 14 15 14 14 14 14 14 14
16 16 15 15 15 15 15 15 16 15 15 15 14 14 14 15 15 14 14 14 15 14 14 13 13 13 13 14 14 13 13 14 14 13 13 14 14 14 14 13 14 14 14
16 15 15 15 15 15 15 14 15 15 15 15 14 14 14 14 14 14 14 14 14 13 14 14 13 13 13 13 13 13 13 13 13 13 14 14 14 14 14 13 13 13 14
15 15 15 15 15 15 15 15 15 16 16 15 15 14 14 14 14 14 14 14 14 14 14 13 13 13 13 13 13 13 13 13 13 13 13 14 14 14 13 13 13 13 13
15 15 15 15 14 15 15 15 15 15 15 15 15 14 14 15 15 15 14 13 13 13 13 13 13 13 13 13 13 13 13 13 13 13 13 13 14 14 14 13 13 13 13
16 15 15 15 15 15 15 14 14 15 15 15 15 15 14 14 15 15 15 14 14 13 13 13 13 13 13 13 14 14 14 14 13 13 13 13 13 13 13 14 13 13 12
15 15 17 16 16 15 15 14 14 14 15 15 15 15 14 14 14 15 14 14 13 13 13 13 13 13 13 13 13 13 13 13 13 13 13 13 12 12 13 13 13 13 13
15 15 15 16 16 15 16 15 14 15 15 14 15 15 14 14 14 14 14 13 14 14 14 14 14 13 13 13 13 13 13 13 13 13 12 13 12 12 11 12 12 12 12
16 15 15 14 16 15 14 14 14 14 14 14 14 14 14 14 14 14 14 14 14 14 13 14 13 13 13 13 13 13 13 13 13 13 13 12 12 12 12 12 12 12 11
16 16 16 15 15 15 14 14 14 14 14 15 14 14 14 14 15 15 14 14 14 14 14 13 14 13 13 13 13 12 12 13 13 13 13 12 12 11 11 11 11 11 11
17 17 17 17 17 15 15 14 14 15 16 16 15 15 15 15 15 15 15 14 14 14 14 14 13 14 12 12 12 11 12 13 13 13 13 12 11 11 11 11 11 10 10
17 17 17 17 18 17 17 16 16 15 15 14 14 15 16 15 15 15 15 14 14 14 14 14 14 13 13 11 12 12 11 11 11 12 12 11 11 11 11 10 10 9 9
17 17 17 17 17 17 17 16 16 15 15 15 15 15 15 15 15 15 15 14 14 14 13 13 13 13 13 12 10 10 10 10 10 10 10 11 11 11 10 9 8 8 7
16 16 16 16 17 17 16 16 15 15 15 15 15 15 14 14 14 14 13 13 13 13 13 12 12 12 12 12 12 10 9 9 10 11 11 10 10 11 10 9 7 7 8
Height
1529 1528 1531 1534 1538 1540 1542 1544 1545 1546 1546 1547 1547 1547 1548 1549 1549 1549 1549 1549 1550 1551 1552 1553 1553 1553 1553 1554 1554 1554 1553 1554 1554 1555 1555 1556 1555 1555 1555 1554 1555 1553 1552
1528 1528 1531 1535 1538 1541 1543 1545 1546 1547 1547 1547 1548 1549 1550 1551 1552 1551 1551 1551 1551 1552 1554 1555 1555 1555 1556 1556 1556 1556 1556 1556 1557 1558 1558 1558 1557 1557 1557 1557 1557 1555 1554
1529 1529 1532 1536 1539 1541 1544 1545 1547 1548 1548 1548 1549 1551 1553 1553 1554 1553 1553 1552 1553 1554 1556 1556 1557 1557 1558 1559 1559 1559 1559 1559 1560 1561 1561 1562 1560 1559 1559 1559 1558 1557 1556
1530 1531 1533 1536 1539 1542 1544 1546 1548 1549 1549 1550 1551 1553 1555 1556 1556 1555 1555 1554 1555 1556 1558 1558 1559 1559 1560 1561 1562 1562 1562 1562 1563 1564 1567 1565 1563 1562 1561 1561 1560 1559 1558
1532 1534 1534 1537 1540 1543 1545 1547 1549 1550 1551 1552 1553 1555 1557 1558 1558 1558 1557 1557 1558 1559 1560 1560 1561 1562 1562 1563 1564 1564 1564 1565 1566 1568 1566 1566 1565 1563 1563 1562 1561 1560 1560
1534 1537 1536 1539 1541 1544 1546 1549 1550 1551 1552 1553 1555 1557 1559 1560 1560 1560 1560 1560 1561 1561 1562 1563 1563 1564 1565 1566 1566 1566 1566 1566 1566 1569 1570 1567 1565 1564 1564 1563 1562 1561 1560
1536 1537 1538 1540 1543 1545 1548 1550 1552 1553 1554 1556 1556 1559 1560 1562 1562 1562 1562 1563 1563 1564 1564 1565 1566 1566 1567 1568 1569 1569 1569 1568 1569 1570 1570 1568 1566 1566 1565 1564 1562 1561 1560
1536 1537 1539 1542 1544 1546 1549 1551 1552 1554 1555 1556 1558 1559 1562 1563 1563 1563 1564 1565 1565 1566 1567 1567 1568 1569 1569 1570 1570 1570 1570 1570 1572 1571 1571 1569 1568 1567 1566 1565 1564 1563 1561
1538 1539 1541 1543 1545 1548 1550 1552 1553 1554 1556 1557 1559 1561 1563 1564 1563 1564 1565 1566 1566 1567 1568 1569 1569 1570 1570 1571 1571 1571 1571 1571 1571 1572 1573 1571 1569 1568 1567 1566 1565 1563 1562
1538 1539 1541 1543 1545 1548 1550 1552 1553 1555 1556 1558 1559 1561 1563 1564 1564 1566 1566 1567 1568 1568 1569 1570 1571 1571 1571 1571 1571 1571 1571 1572 1572 1572 1572 1570 1570 1568 1567 1566 1565 1564 1563
1537 1540 1542 1544 1546 1549 1552 1553 1554 1555 1556 1558 1560 1562 1564 1565 1565 1567 1567 1567 1568 1568 1569 1570 1571 1571 1571 1571 1572 1571 1571 1572 1573 1573 1572 1570 1569 1568 1567 1566 1565 1564 1563
1537 1540 1542 1545 1547 1549 1551 1553 1555 1555 1557 1558 1560 1562 1565 1568 1568 1567 1567 1568 1568 1569 1569 1570 1570 1571 1571 1571 1570 1571 1571 1573 1572 1571 1571 1569 1568 1567 1566 1565 1565 1563 1563
1537 1539 1542 1545 1547 1548 1551 1554 1558 1558 1559 1561 1562 1563 1565 1566 1566 1566 1567 1567 1568 1569 1569 1570 1570 1570 1572 1571 1571 1571 1571 1571 1570 1570 1569 1568 1567 1566 1565 1564 1564 1563 1562
1536 1538 1542 1545 1546 1549 1550 1553 1558 1560 1560 1560 1560 1562 1563 1564 1565 1567 1568 1567 1567 1568 1569 1570 1572 1572 1571 1570 1570 1570 1570 1569 1569 1569 1568 1567 1566 1565 1564 1563 1562 1561 1561
1534 1536 1538 1542 1545 1547 1550 1552 1555 1558 1559 1560 1560 1561 1562 1563 1564 1565 1566 1567 1568 1568 1569 1570 1570 1571 1571 1571 1570 1570 1569 1569 1568 1567 1566 1565 1564 1564 1563 1562 1561 1559 1559
1532 1535 1538 1540 1542 1545 1549 1550 1554 1557 1559 1560 1560 1559 1560 1562 1562 1563 1564 1565 1566 1566 1568 1569 1570 1570 1570 1570 1569 1569 1568 1567 1566 1565 1564 1563 1562 1562 1561 1560 1559 1558 1557
1531 1534 1536 1538 1540 1542 1546 1549 1552 1554 1556 1558 1558 1559 1558 1559 1560 1561 1562 1564 1564 1565 1566 1567 1567 1567 1567 1567 1567 1567 1567 1566 1565 1564 1563 1561 1559 1558 1558 1557 1556 1555 1555
1530 1531 1535 1537 1538 1540 1544 1547 1550 1552 1554 1555 1557 1558 1558 1558 1558 1559 1560 1561 1563 1564 1564 1565 1565 1566 1565 1565 1565 1565 1565 1563 1562 1561 1560 1559 1557 1555 1554 1553 1552 1552 1551
1526 1529 1532 1533 1536 1539 1542 1544 1547 1549 1551 1554 1554 1556 1557 1557 1557 1558 1559 1560 1561 1562 1563 1563 1563 1563 1563 1562 1562 1561 1560 1560 1559 1558 1557 1556 1554 1553 1550 1549 1548 1547 1547
1525 1527 1529 1531 1533 1536 1539 1541 1544 1547 1548 1550 1552 1553 1554 1555 1555 1555 1557 1558 1559 1559 1559 1559 1559 1559 1558 1558 1557 1556 1556 1554 1554 1553 1552 1552 1551 1550 1547 1545 1543 1542 1542
1521 1524 1527 1529 1531 1534 1536 1538 1540 1542 1544 1545 1548 1549 1550 1551 1552 1552 1552 1554 1555 1555 1555 1556 1556 1555 1554 1554 1553 1551 1550 1550 1548 1548 1547 1546 1547 1545 1543 1542 1541 1540 1539
1519 1521 1524 1527 1528 1530 1533 1536 1539 1541 1542 1544 1544 1545 1546 1547 1548 1548 1549 1549 1550 1551 1551 1551 1551 1549 1549 1550 1549 1548 1546 1545 1544 1543 1542 1542 1542 1542 1540 1538 1538 1537 1536
1516 1518 1520 1522 1525 1528 1530 1533 1534 1536 1536 1539 1540 1540 1542 1543 1544 1544 1544 1545 1545 1545 1546 1546 1546 1545 1544 1544 1544 1545 1543 1542 1540 1538 1538 1538 1539 1538 1537 1535 1535 1534 1533
1511 1514 1517 1518 1521 1523 1526 1528 1530 1533 1534 1536 1536 1536 1537 1539 1539 1540 1539 1540 1540 1539 1539 1539 1539 1539 1538 1538 1538 1538 1538 1538 1538 1537 1536 1534 1534 1534 1533 1532 1532 1530 1528
1506 1509 1512 1514 1516 1518 1521 1524 1526 1528 1530 1531 1532 1532 1533 1533 1534 1534 1534 1535 1535 1534 1534 1534 1533 1533 1533 1532 1532 1532 1531 1531 1532 1532 1530 1530 1531 1531 1530 1529 1529 1528 1525
1501 1505 1508 1509 1511 1514 1517 1520 1522 1524 1526 1527 1527 1528 1528 1528 1528 1529 1529 1529 1530 1529 1528 1528 1527 1527 1527 1526 1526 1526 1526 1525 1525 1526 1525 1526 1527 1528 1527 1526 1525 1522 1521
Wind_Speed
16 19 19 16 13 10 7 7 4 5 3 3 5 6 9 12 12 10 9 7 8 8 10 10 10 9 10 11 12 14 15 16 17 18 18 18 16 14 13 14 10 15 14
22 21 19 16 13 10 8 7 3 2 2 3 5 9 13 13 10 10 9 9 9 10 10 8 7 9 10 11 13 15 15 17 18 20 20 17 19 14 13 13 15 18 18
21 21 21 17 13 12 9 7 5 3 4 7 9 14 17 12 10 9 11 11 11 13 12 10 10 11 11 12 14 14 16 17 20 24 18 13 15 16 15 14 14 16 16
21 20 20 19 15 12 11 8 5 6 8 11 14 16 14 10 9 11 13 14 14 15 13 13 13 12 12 12 13 14 16 17 21 19 11 9 11 14 13 12 9 12 13
21 19 19 19 17 15 11 9 9 7 9 13 16 16 13 8 8 11 13 15 16 15 14 14 13 13 13 13 13 14 15 16 21 12 7 9 9 9 7 7 8 8 8
19 18 18 18 17 15 13 10 6 7 11 15 17 16 15 7 7 9 12 13 14 14 14 13 13 12 12 12 12 12 13 14 14 10 8 9 8 10 7 7 8 8 8
19 16 20 17 16 15 13 10 7 8 12 14 18 15 15 8 4 7 9 11 12 12 12 12 11 10 10 9 9 10 11 12 10 8 7 4 9 9 9 10 10 10 9
19 16 18 17 15 14 13 10 8 9 12 11 13 15 13 9 7 9 9 9 9 9 9 8 8 8 7 7 8 8 8 9 9 7 6 6 8 9 11 11 12 12 11
17 17 16 18 15 13 13 10 8 10 12 12 12 11 14 9 7 8 7 7 7 7 7 6 6 5 4 4 4 5 5 7 9 3 5 5 8 9 10 11 12 12 11
17 19 17 16 14 14 13 11 8 10 11 12 10 10 9 5 3 5 4 4 4 3 3 3 3 2 1 1 2 3 3 5 4 5 4 6 8 8 9 10 11 11 11
18 17 17 15 15 14 11 10 7 10 10 10 9 8 6 3 3 3 3 4 3 2 2 2 1 1 1 2 3 3 3 4 2 3 3 8 9 9 9 9 10 11 11
18 18 17 16 15 13 13 9 6 8 7 8 8 8 6 7 6 8 6 5 5 4 4 5 4 4 4 4 6 5 4 5 4 5 6 8 10 10 10 9 9 10 10
17 16 18 17 13 16 13 10 8 6 7 8 9 8 8 8 8 7 6 7 7 7 6 6 7 6 4 6 6 5 7 7 5 7 8 9 10 11 12 11 10 10 10
15 12 15 15 16 13 13 13 9 9 9 8 9 9 8 6 8 6 6 6 7 6 5 7 5 7 8 9 7 7 8 8 6 8 8 11 11 11 12 12 13 11 11
18 19 21 17 16 14 13 13 13 11 11 9 9 10 8 8 6 7 6 6 6 7 7 7 7 7 7 7 8 8 8 8 8 9 10 12 11 12 12 12 13 14 13
16 14 14 15 16 16 15 14 12 11 11 11 10 10 11 8 8 8 7 7 8 9 8 8 7 8 7 8 8 9 9 9 9 11 12 13 15 13 13 13 13 14 15
13 13 15 14 16 14 15 14 12 12 12 12 11 10 11 11 10 10 8 7 7 8 8 9 10 10 10 10 10 10 10 11 11 11 13 16 18 18 16 16 16 15 15
12 16 16 14 14 14 15 14 14 13 11 11 10 10 11 10 9 9 9 9 8 8 9 9 10 10 10 11 11 11 12 13 13 14 15 17 19 19 20 21 19 18 18
13 15 17 16 15 15 15 13 13 12 12 11 11 11 10 10 10 10 10 9 9 10 11 12 12 13 14 14 14 15 15 15 16 16 17 17 17 20 23 21 24 22 21
12 14 15 17 17 15 15 15 15 15 13 14 13 12 12 11 12 13 12 13 12 14 14 15 16 15 17 17 17 17 18 19 17 18 17 18 17 18 22 21 19 21 20
12 15 15 16 18 17 16 16 17 18 17 16 16 16 15 15 13 15 16 15 15 18 16 16 17 19 22 21 21 23 21 17 19 21 19 19 13 17 15 18 19 16 14
11 14 16 15 15 16 16 16 15 12 13 12 13 15 16 17 19 20 20 21 20 21 22 21 21 21 23 21 19 18 17 20 16 21 18 14 13 13 17 18 14 13 14
14 17 17 18 18 17 16 15 18 20 18 17 18 18 17 21 22 23 24 25 25 25 26 26 27 26 25 24 21 19 12 12 12 13 16 15 15 16 15 16 18 16 15
15 17 18 18 19 19 21 22 22 20 17 13 16 18 19 20 22 24 25 26 26 26 27 27 26 25 24 25 24 27 28 27 19 16 17 14 14 18 19 16 14 14 15
19 16 20 22 20 20 20 22 23 22 22 22 20 19 19 21 22 23 24 25 26 27 27 27 27 28 28 27 25 23 26 25 25 28 23 22 22 21 13 9 13 8 14
20 19 17 19 20 19 19 20 19 19 19 19 19 18 20 21 23 23 23 24 25 25 24 24 23 23 24 23 23 22 23 21 22 22 25 26 20 18 18 19 11 17 19
Wind_Direction
154 165 162 164 169 160 153 140 134 122 123 87 67 70 104 105 97 87 88 96 124 125 102 104 91 74 62 55 59 68 73 72 76 81 75 66 61 64 71 72 64 43 44
152 162 157 159 163 150 150 149 145 117 103 99 88 107 113 104 103 82 83 92 102 118 111 107 98 81 67 66 71 77 77 77 79 80 65 48 52 58 66 65 59 47 44
151 158 153 155 157 151 159 162 161 124 108 119 114 118 114 114 100 85 82 89 106 111 113 116 101 89 81 79 81 80 77 81 82 73 57 45 49 64 68 61 54 44 46
150 158 159 161 160 153 162 167 160 127 113 117 121 123 119 109 98 80 79 84 100 112 114 106 101 95 89 88 85 82 81 81 78 70 83 72 55 68 66 62 53 48 42
152 149 166 158 155 159 168 156 138 123 122 123 127 127 126 110 101 85 83 90 99 108 109 106 102 97 92 90 88 85 85 88 78 72 72 80 58 64 48 26 19 18 19
151 153 172 161 160 164 154 149 135 128 136 135 135 133 128 124 115 96 95 99 105 110 113 111 106 102 98 97 94 89 85 84 77 83 59 27 50 45 40 25 14 3 357
148 168 164 160 163 159 157 147 134 132 144 144 143 138 134 142 132 126 107 105 107 112 115 115 111 105 97 98 90 78 73 76 73 69 62 33 48 49 37 28 23 16 10
153 158 166 161 171 167 161 152 137 136 142 141 149 141 132 149 143 122 120 111 110 108 109 112 109 103 95 86 79 71 66 65 59 50 61 30 32 31 30 26 23 20 19
161 148 158 165 173 172 164 159 143 141 149 138 144 145 149 162 158 139 135 127 124 125 123 120 117 112 103 93 82 67 59 65 81 38 64 318 16 19 22 23 21 19 19
169 164 161 173 175 176 177 171 153 152 163 159 153 155 159 164 144 129 140 132 128 139 144 141 132 118 99 51 28 29 31 38 43 19 3 342 357 4 12 17 15 12 12
178 169 166 177 173 173 173 181 168 165 171 176 175 167 158 156 168 180 195 190 205 207 220 233 230 246 292 323 336 340 348 32 314 309 312 328 337 345 355 358 0 2 3
173 177 176 173 179 177 186 197 181 172 171 175 184 189 160 193 201 195 234 232 239 250 255 260 271 285 306 327 320 317 340 288 299 284 282 316 324 329 334 339 341 347 350
190 188 190 181 187 193 184 179 184 197 176 183 179 192 188 199 228 227 248 240 244 244 256 256 266 287 284 263 276 294 277 285 286 290 286 307 313 318 320 321 324 330 333
188 185 178 186 186 198 200 188 188 200 196 193 191 191 197 201 221 212 216 233 237 253 237 243 243 255 274 286 285 282 283 292 284 279 290 303 304 309 312 311 313 317 317
203 203 206 194 194 198 205 201 199 194 211 209 206 205 205 208 215 217 222 230 235 232 234 240 252 258 271 270 271 278 280 280 280 285 295 300 301 302 307 308 307 311 306
201 207 210 209 201 206 199 210 194 211 218 211 221 219 218 210 216 222 225 233 239 243 242 244 247 260 265 271 272 269 273 277 279 284 288 290 300 302 304 302 302 301 302
207 202 202 200 204 200 210 205 205 210 210 215 220 226 225 227 226 225 220 229 244 244 247 246 254 257 261 266 271 274 273 273 273 276 280 289 294 301 297 296 294 291 291
205 204 201 200 201 197 204 211 204 209 214 212 217 223 229 229 235 234 237 240 238 248 254 252 258 263 266 268 271 271 273 280 279 276 275 282 290 294 295 296 289 286 281
207 207 210 211 208 207 202 208 213 216 209 217 219 224 230 231 240 248 247 250 249 250 252 258 257 256 259 265 267 270 271 269 269 272 274 275 277 283 289 285 289 284 277
206 209 215 217 219 218 222 213 218 220 223 219 227 229 230 233 241 248 251 253 249 251 254 255 258 260 264 268 274 269 268 272 270 269 274 273 270 272 277 293 289 285 281
218 211 209 219 226 218 221 226 228 236 238 234 232 236 234 236 238 251 258 255 253 259 258 262 266 266 270 275 276 277 292 291 278 285 285 282 269 273 291 296 295 293 283
223 224 217 211 218 220 218 223 227 243 236 248 256 246 245 253 257 256 260 264 265 270 272 271 270 269 267 267 266 275 285 288 274 274 270 262 273 287 288 296 296 294 290
229 225 225 227 228 221 221 220 227 229 240 240 241 255 255 254 258 262 266 269 271 272 271 271 271 270 271 270 267 264 279 267 308 266 267 264 279 283 284 286 285 282 282
228 234 233 232 234 236 238 240 244 248 253 258 241 252 264 265 265 268 269 271 272 273 275 277 277 275 273 269 270 267 264 265 275 274 270 268 285 287 288 287 291 288 293
226 236 235 235 235 240 246 243 244 245 243 244 255 262 265 268 267 268 270 272 274 274 275 275 274 276 276 271 266 267 269 267 262 268 272 272 272 279 290 288 282 284 266
236 243 243 240 239 242 241 237 236 237 244 249 256 261 266 269 271 271 272 273 274 274 275 276 277 278 278 278 274 265 258 261 268 265 266 266 265 269 266 281 287 268 288